Location: Huntsville
(41.2590°N, 111.7678°W)
Time: 20:55:59
(UTC+00:00)

Explorer 7 - Pass Details

Date: 13 June 2021
Orbit: 484 x 676 km, 50.3° (Epoch: 30 July)

Event Time Altitude Azimuth Distance (km) Brightness Sun altitude
Exits shadow 05:54:19 15° 81° (E) 1,730 9.2 -22.0°
Drops below altitude 10° 05:55:17 10° 74° (ENE) 2,044 9.6 -22.1°
Sets 05:57:46 0° 64° (ENE) 2,929 10.6 -22.3°
